Weather History for Pensacola NAS, FL

Change the Weather History Date:

Monday, August 12, 2013

  Actual Average Record
Temperature  
Mean Temperature 84 °F -  
Max Temperature 90 °F 87 °F 93 °F (1998)
Min Temperature 77 °F 72 °F 71 °F (1996)
Cooling Degree Days 18    
Growing Degree Days 34 (Base 50)    
Moisture  
Dew Point 77 °F    
Average Humidity 82    
Maximum Humidity 96    
Minimum Humidity 63    
Precipitation  
Precipitation 0.00 in - - ()
Sea Level Pressure  
Sea Level Pressure 30.08 in    
Wind  
Wind Speed 4 mph (SSE)    
Max Wind Speed 13 mph    
Max Gust Speed 20 mph    
Visibility 10 miles    
Events Thunderstorm    
Averages and records for this station are not official NWS values.
T = Trace of Precipitation, MM = Missing Value Source: NWS Daily Summary

Daily Weather History Graph

Daily Weather History Graph

Search for Another Location

Airport:

Trip Planner

Search our weather history database for the weather conditions in past years. The results will help you decide how hot, cold, wet, or windy it might be!

Date:

Astronomy

Aug. 12, 2013 Rise Set
Actual Time 6:14 AM CDT 7:33 PM CDT
Civil Twilight 5:49 AM CDT 7:58 PM CDT
Nautical Twilight 5:18 AM CDT 8:29 PM CDT
Astronomical Twilight 4:47 AM CDT 9:00 PM CDT
Moon 11:35 AM CDT (8/12) 10:57 PM CDT (8/12)
Length of Visible Light 14h 09m
Length of Day
13h 18m
Waxing Crescent, 31% of the Moon is Illuminated
Aug 12
Waxing Crescent
Aug 14
First Quarter
Aug 20
Full
Aug 28
Last Quarter
Sep 5
New

Hourly Weather History & Observations

Time (CDT) Temp. Heat Index Dew Point Humidity Pressure Visibility Wind Dir Wind Speed Gust Speed Precip Events Conditions
12:56 AM 82.0 °F 90.2 °F 77.0 °F 85% 30.11 in 10.0 mi South 6.9 mph - N/A   Partly Cloudy
1:56 AM 79.0 °F - 75.9 °F 90% 30.10 in 10.0 mi Calm Calm - N/A   Partly Cloudy
2:56 AM 78.1 °F - 75.9 °F 93% 30.09 in 10.0 mi Calm Calm - N/A   Clear
3:56 AM 77.0 °F - 75.9 °F 96% 30.09 in 10.0 mi Calm Calm - N/A   Clear
4:56 AM 77.0 °F - 75.9 °F 96% 30.10 in 10.0 mi Calm Calm - N/A   Clear
5:56 AM 77.0 °F - 75.9 °F 96% 30.10 in 10.0 mi Calm Calm - N/A   Mostly Cloudy
6:56 AM 78.1 °F - 77.0 °F 96% 30.10 in 10.0 mi Calm Calm - N/A   Scattered Clouds
7:56 AM 82.9 °F 93.8 °F 79.0 °F 88% 30.11 in 10.0 mi East 5.8 mph - N/A   Mostly Cloudy
8:56 AM 87.1 °F 101.5 °F 79.0 °F 77% 30.12 in 10.0 mi ENE 4.6 mph - N/A   Mostly Cloudy
9:21 AM 84.2 °F 94.1 °F 77.0 °F 79% 30.11 in 10.0 mi SE 6.9 mph - N/A   Mostly Cloudy
9:56 AM 86.0 °F 98.3 °F 78.1 °F 77% 30.12 in 10.0 mi SSE 8.1 mph - N/A   Mostly Cloudy
10:56 AM 87.1 °F 99.8 °F 78.1 °F 74% 30.12 in 10.0 mi South 8.1 mph - N/A   Mostly Cloudy
11:37 AM 87.8 °F 102.5 °F 78.8 °F 75% 30.11 in 10.0 mi SSE 5.8 mph - N/A Thunderstorm Thunderstorm
11:56 AM 86.0 °F 96.9 °F 77.0 °F 74% 30.11 in 10.0 mi Variable 4.6 mph - N/A   Mostly Cloudy
12:56 PM 89.1 °F 101.4 °F 77.0 °F 67% 30.10 in 10.0 mi South 9.2 mph - N/A   Mostly Cloudy
1:56 PM 90.0 °F 101.3 °F 75.9 °F 63% 30.09 in 10.0 mi SSW 12.7 mph 19.6 mph N/A   Mostly Cloudy
2:56 PM 89.1 °F 99.1 °F 75.0 °F 63% 30.06 in 10.0 mi SW 10.4 mph - N/A   Mostly Cloudy
3:56 PM 82.9 °F 90.2 °F 75.0 °F 77% 30.07 in 10.0 mi NNE 4.6 mph - N/A   Mostly Cloudy
4:06 PM 82.4 °F 89.5 °F 75.2 °F 79% 30.06 in 10.0 mi Calm Calm - N/A   Mostly Cloudy
4:56 PM 84.0 °F 92.6 °F 75.9 °F 76% 30.06 in 10.0 mi NNE 4.6 mph - N/A   Mostly Cloudy
5:56 PM 84.0 °F 92.6 °F 75.9 °F 76% 30.05 in 10.0 mi Calm Calm - N/A   Mostly Cloudy
6:56 PM 82.9 °F 91.8 °F 77.0 °F 82% 30.04 in 10.0 mi Calm Calm - N/A   Mostly Cloudy
7:56 PM 81.0 °F 87.9 °F 77.0 °F 88% 30.05 in 10.0 mi Calm Calm - N/A   Mostly Cloudy
8:56 PM 80.1 °F 85.8 °F 77.0 °F 90% 30.06 in 10.0 mi Calm Calm - N/A   Mostly Cloudy
9:56 PM 82.0 °F 90.2 °F 77.0 °F 85% 30.06 in 10.0 mi WSW 3.5 mph - N/A   Mostly Cloudy
10:56 PM 80.1 °F 85.8 °F 77.0 °F 90% 30.05 in 10.0 mi Calm Calm - N/A   Scattered Clouds
11:56 PM 80.1 °F 85.4 °F 75.9 °F 87% 30.04 in 10.0 mi WSW 3.5 mph - N/A   Clear